Weather in Chastie

Russia / Perm Krai     57°17′35″N   54°58′10″E
temp.,
°C
wind,
m/s
gust,
m/s
humid.,
%
clouds,
%
prec.,
mm/h
press.,
hPa
HPBL,
m
25 february, thu
thu2523:00−26n33950 0.0 103263
02:00−28n22970 0.0 103119
05:00−29nw11970 0.0 103219
08:00−29w119918 0.0 103119
11:00−24ssw12929 0.0 1031166
14:00−19ssw248648 0.0 1030394
17:00−18s358866 0.0 1028483
20:00−24sse339531 0.0 102846
26 february, fri
fri2623:00−26se239716 0.0 102734
02:00−27se35960 0.0 102695
05:00−27se36940 0.0 1026117
08:00−28se35950 0.0 1025118
11:00−23se369440 0.0 1024275
14:00−18sse478996 0.0 1022445
17:00−16sse488998 0.0 1021546
20:00−19sse399596 0.0 1019243
27 february, sat
sat2723:00−19sse4139276 0.0 1017366
02:00−18se5149252 0.0 1014502
05:00−17se5139176 0.0 1011527
08:00−16ese51286100 0.0 1008511
11:00−14ese61193100 0.4 1007540
14:00−12ese5992100 0.8 1005701
17:00−11e5890100 1.2 1005655
20:00−13e51093100 0.3 1005391
28 february, sun
sun2823:00−15e5109298 0.3 1006361
02:00−16ene5109497 0.1 1005360
05:00−17ene499496 0.2 1006340
08:00−17ne499497 0.1 1006341
11:00−15ne589298 0.3 1007394
14:00−13ne4790100 0.1 1008480
17:00−13ne4792100 0.3 1009500
20:00−14nne4895100 0.3 1011375
1 march, mon
mon123:00−15ne489598 0.3 1012325
02:00−17ne489598 0.2 1014308
05:00−18nne479697 0.3 1015257
08:00−21nne489690 0.0 1017185
11:00−18nne479266 0.0 1018272
14:00−13nne358541 0.0 1018406
17:00−12nnw358956 0.0 1018404
20:00−17w129427 0.0 101820